#timestamp,LO_Frequency,Hit,StdDev 
1594524135.8,286047009.5,P
1594524155.7,286047012.2,P
1594524175.5,286047012.0,P
1594524195.3,286047009.5,Y
1594524215.2,286046998.2,P
1594524235.0,286047001.0,N
1594524235.9,286047001.0,N
1594524255.8,286047000.1,N
1594524275.6,286046998.6,N
1594524295.4,286047000.8,N
1594524315.3,286047000.0,N
1594524335.1,286047001.3,N
1594524336.0,286047001.3,N
1594524355.8,286047002.5,N
1594524375.7,286047001.6,N
1594524395.5,286047002.1,N
1594524415.4,286047004.0,N
1594524435.2,286047002.2,N
1594524455.0,286047002.2,N
1594524455.9,286047002.2,N
1594524475.8,286047002.8,N
1594524495.6,286047002.1,N
1594524515.4,286047001.5,N
1594524535.3,286047005.5,N
1594524555.1,286047007.6,Y
1594524575.9,286047002.2,P
1594524595.7,286047002.6,P
1594524615.5,286047004.2,P
1594524635.4,286047001.8,N
1594524655.2,286047001.8,N
1594524675.0,286047001.9,N
1594524675.9,286047001.9,N
1594524695.8,286047002.7,Y
1594524715.6,286046998.8,P
1594524735.5,286046999.3,N
1594524755.3,286046999.6,N
1594524775.1,286047001.2,N
1594524795.9,286046998.1,N
1594524815.7,286046999.1,N
1594524835.5,286047000.5,N
1594524855.4,286047000.9,N
1594524875.2,286046999.0,N
1594524895.1,286046998.7,N
1594524896.0,286046998.7,N
1594524915.8,286046998.7,N
1594524935.6,286047001.2,N
1594524955.5,286047000.5,N
1594524975.3,286047000.4,N
1594524995.2,286047002.2,N
1594525015.9,286047001.5,N
1594525035.7,286047003.1,N
1594525055.6,286047007.5,Y
1594525075.4,286047006.6,P
1594525095.2,286047010.8,P
1594525115.1,286047007.8,N
1594525116.0,286047007.8,N
1594525135.8,286047009.2,N
1594525155.7,286047007.1,N
1594525175.5,286047005.9,N
1594525195.3,286047005.8,N
1594525215.2,286047007.1,N
1594525235.0,286047005.0,N
1594525235.9,286047005.0,N
1594525255.7,286047007.3,N
1594525275.6,286047009.1,Y
1594525295.4,286047000.5,P
1594525315.3,286047002.2,N
1594525335.1,286047001.9,N
1594525336.0,286047001.9,N
1594525355.8,286047001.9,N
1594525375.7,286047002.5,N
1594525395.5,286047002.6,N
1594525415.3,286047002.1,N
1594525435.2,286047002.1,N
1594525455.0,286047000.1,N
1594525455.9,286047000.1,N
1594525475.8,286047000.4,N
1594525495.6,286047001.9,N
1594525515.4,286047001.8,N
1594525535.3,286047003.2,N
1594525555.1,286047001.8,N
1594525575.9,286047004.4,Y
1594525595.7,286046999.7,P
1594525615.5,286047000.2,N
1594525635.4,286047000.8,N
1594525655.2,286046999.7,N
1594525675.0,286047003.6,Y
1594525676.0,286047003.6,P
1594525695.8,286047002.7,N
1594525715.6,286047000.1,N
1594525735.5,286047000.9,N
1594525755.3,286046998.6,N
1594525775.1,286046998.3,N
1594525795.9,286046996.6,N
1594525815.7,286046998.8,N
1594525835.6,286046998.6,N
1594525855.4,286047001.2,N
1594525875.2,286047001.0,N
1594525895.1,286046998.6,N
1594525896.0,286046998.6,N
1594525915.8,286046999.3,N
1594525935.6,286046999.1,N
1594525955.5,286046998.1,N
1594525975.3,286047000.8,N
1594525995.2,286047002.2,N
1594526015.9,286047003.4,N
1594526035.7,286047005.0,N
1594526055.6,286047004.8,N
1594526075.4,286047003.5,N
1594526095.3,286047004.4,N
1594526115.1,286047002.3,N
1594526116.0,286047002.3,N
1594526135.8,286047002.1,N
1594526155.7,286047004.0,N
1594526175.5,286047003.6,N
1594526195.3,286047004.2,N
1594526215.2,286047005.9,N
1594526235.0,286047003.4,N
1594526235.9,286047003.4,N
1594526255.8,286047003.5,N
1594526275.6,286047003.7,N
1594526295.4,286047001.3,N
1594526315.3,286047004.1,N
1594526335.1,286047005.4,N
1594526355.9,286047005.1,N
1594526375.7,286047009.2,Y
1594526395.5,286047003.4,P
